Terug naar catalogus

STARLINK-34594

ActiefCommunicatieVLEO
NORAD 65088·PAYLOAD·🇺🇸 United States

Gelanceerd Aug 4, 2025 vanaf Cape Canaveral Space Force Station

Loading…

Volgende Passages (komende 24 uur)

TLE

VersSource: CelesTrak SupGP

Epoch: Sep 14, 2026, 23:10 UTC

1 65088C 25167L   26257.96576389  .00008411  00000+0  24838-3 0  2571
2 65088  53.1593 227.2492 0001519  91.7206 219.0789 15.34402895    12

Volg STARLINK-34594 in realtime met AllMySat

Download on the App Store